Hourly Data Report for November 25, 2016

All times are specified in Local Standard Time (LST). Add 1 hour to adjust for Daylight Saving Time where and when it is observed.

KITCHENER/WATERLOO
ONTARIO

43°27'39.000" N
80°22'43.000" W
321.60 m
6144239
71368
YKF

Download Data

Hourly Data (November 2016)
Hourly Data Report for November 25, 2016
Temp Definition
°C
Dew Point Temp Definition
°C
Rel Hum Definition
%
Wind Dir Definition
10's deg

Wind Spd Definition
km/h
Visibility Definition
km
Stn Press Definition
kPa
Hmdx Definition


Wind Chill Definition


Weather Definition


TIME
00:00 Legend Double Dagger 3.6 3.3 98 19 8 0.4 98.27     Rain,Fog
01:00 Legend Double Dagger 3.7 3.4 98 19 8 0.4 98.25     Fog
02:00 Legend Double Dagger 3.9 3.6 98 19 5 0.8 98.26     Fog
03:00 Legend Double Dagger 4.1 3.8 98 21 8 0.6 98.25     Fog
04:00 Legend Double Dagger 4.3 4.0 98 24 13 1.2 98.26     Fog
05:00 Legend Double Dagger 4.0 3.7 98 26 9 2.8 98.27     Rain,Fog
06:00 Legend Double Dagger 3.8 3.5 98 31 8 4.8 98.29     Fog
07:00 Legend Double Dagger 3.5 3.2 98 25 5 4.8 98.29     Fog
08:00 Legend Double Dagger 3.6 3.3 98 24 9 9.7 98.33     Rain,Fog
09:00 Legend Double Dagger 4.0 3.7 98 25 9 16.1 98.33     LegendNANA
10:00 Legend Double Dagger 4.4 3.5 94 24 18 16.1 98.35     Rain
11:00 Legend Double Dagger 5.2 3.6 90 25 22 16.1 98.33     LegendNANA
12:00 Legend Double Dagger 5.5 2.5 81 25 21 16.1 98.28     LegendNANA
13:00 Legend Double Dagger 5.4 3.4 87 24 21 16.1 98.23     LegendNANA
14:00 Legend Double Dagger 5.2 2.6 83 26 24 16.1 98.21     LegendNANA
15:00 Legend Double Dagger 5.1 2.0 81 27 21 16.1 98.23     LegendNANA
16:00 Legend Double Dagger 4.9 1.2 77 26 24 16.1 98.26     LegendNANA
17:00 Legend Double Dagger 4.5 1.3 80 26 15 16.1 98.30     LegendNANA
18:00 Legend Double Dagger 4.3 1.0 79 26 13 16.1 98.31     LegendNANA
19:00 Legend Double Dagger 4.1 1.1 81 25 13 16.1 98.34     LegendNANA
20:00 Legend Double Dagger 3.7 1.4 85 23 11 16.1 98.34     LegendNANA
21:00 Legend Double Dagger 3.3 1.7 89 22 9 16.1 98.33     LegendNANA
22:00 Legend Double Dagger 3.3 2.0 91 22 11 16.1 98.33     Rain
23:00 Legend Double Dagger 2.9 1.9 93 25 15 16.1 98.30     Rain

Notes on Data Quality.

Legend

  • E = Estimated
  • M = Missing
  • NA = Not Available
  • ‡ = Partner data that is not subject to review by the National Climate Archives
Date modified: